Location: Buena Vista
(37.7110°N, 119.7938°W)
Time: 13:07:53
(UTC+00:00)

Envisat - Pass Details

Date: 20 August 2024
Orbit: 762 x 764 km, 98.3° (Epoch: 16 September)

Event Time Altitude Azimuth Distance (km) Brightness Sun altitude
Rises 10:33:41 0° 21° (NNE) 3,232 7.3 -28.8°
Reaches altitude 10° 10:36:09 10° 29° (NNE) 2,302 6.4 -28.5°
Maximum altitude 10:40:52 39° 98° (E) 1,137 4.1 -27.8°
Enters shadow 10:42:05 34° 130° (SE) 1,245 4.1 -27.6°
